User: anonymous
Location: Caltech
(34.1382°N, 118.1253°W)
Time: 13:09:27
(UTC-07:00)
Language:

MaSat-1 - Orbit

View from above orbital plane
View from above orbital plane
View from above satellite
View from above satellite

Ground track
Ground track

The orbit data is extracted from the following two-line orbital elements,

1 38081U 12006E   14264.57587831  .00137723  75838-5  12821-2 0  4372
2 38081 069.4539 093.9660 0314924 214.9219 209.5754 15.24133490138086
Epoch (UTC): 21 September 2014 13:49:15
Eccentricity: 0.0314924
inclination: 69.4539°
perigee height: 277 km
apogee height: 710 km
right ascension of ascending node: 93.9660°
argument of perigee: 214.9219°
revolutions per day: 15.24133490
mean anomaly at epoch: 209.5754°
orbit number at epoch: 13808

The dashed part of the orbit path shows where the satellite is in the earth's shadow,  

DLR